Location: Gorze? G�rny
(49.8500°N, 19.5000°E)
Time: 13:16:25
(UTC+00:00)

Cosmos 2278 Rocket - Pass Details

Date: 13 May 2021
Orbit: 841 x 845 km, 71.0° (Epoch: 22 June)

Event Time Altitude Azimuth Distance (km) Brightness Sun altitude
Rises 19:49:21 0° 205° (SSW) 3,385 5.1 -12.0°
Reaches altitude 10° 19:51:47 10° 205° (SSW) 2,454 4.4 -12.3°
Maximum altitude 19:57:25 86° 117° (ESE) 851 2.2 -12.9°
Drops below altitude 10° 20:03:06 10° 30° (NNE) 2,470 4.9 -13.4°
Sets 20:05:33 0° 30° (NNE) 3,409 5.7 -13.7°
